Location: Ballingbuur
(53.0000°N, 5.7667°E)
Time: 06:26:29
(UTC+00:00)

Cosmos 1777 Rocket - Pass Details

Date: 29 November 2020
Orbit: 757 x 777 km, 74.0° (Epoch: 23 January)

Event Time Altitude Azimuth Distance (km) Brightness Sun altitude
Exits shadow 04:16:51 51° 7° (N) 957 4.4 -27.3°
Drops below altitude 10° 04:20:48 10° 24° (NNE) 2,305 6.7 -26.7°
Sets 04:23:12 0° 26° (NNE) 3,237 7.6 -26.3°
